Regional Weather Roundup
Issued by NWS

Home | Current Version | Previous Version | Graphics & Text | Print | Product List | Glossary On
Versions: 1 2 3 4 5 6 7 8 9 10 11 12 13 14 15 16 17 18 19 20 21 22 23 24 25 26 27 28 29 30 31 32 33 34 35 36 37 38 39 40 41 42 43 44 45 46 47 48 49 50
000
ASUS45 KABQ 280810
RWRNM
NEW MEXICO REGIONAL WEATHER ROUNDUP
NATIONAL WEATHER SERVICE ALBUQUERQUE NM
200 AM MDT TUE MAR 28 2017

NOTE: "FAIR" MEANS FEW OR NO CLOUDS BELOW 12,000 FEET AGL WITH NO
       SIGNIFICANT WEATHER OR OBSTRUCTIONS TO VISION.

      THIS PRODUCT IS RELEASED AS TWO VERSIONS.  ONE VERSION NEAR
      THE TOP OF THE HOUR CONTAINING PRELIMINARY DATA FROM ALBUQUERQUE
      AND OTHER STATIONS.  A FINAL VERSION WITH ADDITIONAL DATA IS
      ISSUED ABOUT 10 MINUTES AFTER THE HOUR.

NMZ501-503-504-510>518-280900-
NORTHWEST PLATEAU/NORTHCENTRAL MOUNTAINS

CITY           SKY/WX    TMP DP  RH WIND       PRES   REMARKS
FARMINGTON     MOCLDY    41  37  86 CALM      29.85F
LOS ALAMOS     MOCLDY    40  35  83 N3        29.89F
SANTA FE       MOCLDY    41  40  96 N9        29.85F
TAOS             N/A     36  28  75 N3        29.90F
ANGEL FIRE     FAIR      32  31  96 S3        29.93F

$$
NMZ402-403-502-505>509-280900-
WESTCENTRAL MOUNTAINS/SOUTHWEST MOUNTAINS

CITY           SKY/WX    TMP DP  RH WIND       PRES   REMARKS
GALLUP         LGT RAIN  36  33  89 W6        29.91S WCI  31
GRANTS         CLOUDY    33  28  83 CALM      29.89S
SILVER CITY    MOCLDY    48  31  51 NW6       29.85S

$$
NMZ407-409-411-412-280900-
SOUTHERN DESERTS

CITY           SKY/WX    TMP DP  RH WIND       PRES   REMARKS
DEMING         MOCLDY    59  30  33 W10       29.81F
LAS CRUCES     MOCLDY    63  29  27 W10       29.82S
HOLLOMAN AFB   CLOUDY    66  32  28 W16       29.83S
ALAMOGORDO     CLOUDY    63  28  27 SW6       29.82R
T OR C         MOCLDY    56  29  35 NW8       29.80S

$$
NMZ519>523-280900-
CENTRAL VALLEYS/CENTRAL HIGHLANDS

CITY           SKY/WX    TMP DP  RH WIND       PRES   REMARKS
ALBUQUERQUE    MOCLDY    50  37  61 NW3       29.84F
MORIARTY ARPT  RAIN      49  40  71 SE5       29.88F
CLINES CORNERS LGT RAIN  44  35  70 W13       29.92R
BELEN          MOCLDY    46  34  63 NE5       29.83F
SOCORRO        FAIR      51  33  49 NW5       29.81F

$$
NMZ524>526-539-540-280900-
SOUTHCENTRAL MOUNTAINS

CITY           SKY/WX    TMP DP  RH WIND       PRES   REMARKS
RUIDOSO        CLOUDY    52  28  40 SW21G31   29.92F

$$
NMZ527>531-280900-
NORTHEAST HIGHLANDS/NORTHEAST PLAINS

CITY           SKY/WX    TMP DP  RH WIND       PRES   REMARKS
LAS VEGAS      LGT RAIN  46  36  68 S14       29.88S
RATON          CLOUDY    47  35  63 CALM      29.84F
CLAYTON        MOCLDY    47  40  76 S12       29.85S

$$
NMZ532>537-280900-
EASTCENTRAL PLAINS

CITY           SKY/WX    TMP DP  RH WIND       PRES   REMARKS
TUCUMCARI      CLOUDY    62  34  35 SW6G26    29.79R
CANNON AFB     CLOUDY    55  38  54 E9        29.84F
CLOVIS AIRPORT FAIR      52  36  54 E5        29.86S

$$
NMZ028-029-538-280900-
SOUTHEAST PLAINS

CITY           SKY/WX    TMP DP  RH WIND       PRES   REMARKS
ROSWELL        FAIR      61  26  26 S5          N/A
ARTESIA        FAIR      61  28  29 S8        29.76S
CARLSBAD       FAIR      60  28  29 SE5       29.74F
HOBBS          FAIR      57  34  41 E8        29.79F


$$




USA.gov is the U.S. government's official web portal to all federal, state and local government web resources and services.